EW2235 Weather Reports


Display with metric or nautical units.
time (UTC)temp
F
wind
direction
speed
MPH
gust
MPH
rain 1hr
in
rain 24hr
in
rain mn
in
humidity
%
barometer
mb
20260504173330 56 243 0.0 5.0 0.00 0.00 0.00 87 1013.9
20260504172819 56 294 0.0 5.0 0.00 0.00 0.00 88 1013.9
20260504172325 55 309 0.0 3.0 0.00 0.00 0.00 88 1013.8
20260504171834 55 210 0.0 4.0 0.00 0.00 0.00 88 1013.8
20260504171313 55 1 0.0 2.0 0.00 0.00 0.00 89 1013.8
20260504170816 55 312 0.0 8.0 0.00 0.00 0.00 89 1013.8
20260504170316 55 314 1.0 8.0 0.00 0.00 0.00 89 1013.7
20260504160332 54 313 0.0 5.0 0.00 0.00 0.00 91 1013.8
20260504150336 52 158 0.0 8.0 0.00 0.00 0.00 92 1013.2
20260504141321 52 294 1.0 6.0 0.00 0.00 0.00 93 1012.7
20260504140831 52 323 0.0 6.0 0.00 0.00 0.00 93 1012.6
20260504140331 51 281 0.0 6.0 0.00 0.00 0.00 93 1012.5
20260504130333 51 38 0.0 9.0 0.00 0.00 0.00 92 1011.5
20260504110330 56 205 4.0 12.0 0.00 0.00 0.00 84 1010.3
20260504100320 60 185 2.0 10.0 0.00 0.00 0.00 76 1009.7
20260504081812 68 216 0.0 0.0 0.00 0.00 0.00 53 1009.2
20260504081319 68 216 0.0 0.0 0.00 0.00 0.00 52 1009.2
20260504080822 68 216 0.0 0.0 0.00 0.00 0.00 51 1009.1
20260504080329 68 216 0.0 0.0 0.00 0.00 0.00 51 1009.1
20260504070335 71 217 0.0 0.0 0.00 0.00 0.00 44 1008.8
20260504050332 78 319 0.0 4.0 0.00 0.00 0.00 36 1008.3
20260504045814 78 307 1.0 8.0 0.00 0.00 0.00 35 1008.3
20260504045322 79 281 0.0 8.0 0.00 0.00 0.00 35 1008.3
20260504044824 79 335 2.0 8.0 0.00 0.00 0.00 34 1008.2
20260504044323 79 342 0.0 10.0 0.00 0.00 0.00 34 1008.3
20260504043320 79 312 1.0 8.0 0.00 0.00 0.00 34 1008.2
20260504042822 79 330 2.0 8.0 0.00 0.00 0.00 34 1008.2
20260504042336 79 23 1.0 8.0 0.00 0.00 0.00 34 1008.2
20260504041820 80 325 1.0 7.0 0.00 0.00 0.00 33 1008.1
20260504041339 79 31 0.0 8.0 0.00 0.00 0.00 33 1008.1
20260504040844 80 300 1.0 8.0 0.00 0.00 0.00 34 1008.1
20260504040350 80 307 0.0 4.0 0.00 0.00 0.00 34 1008.0
20260504035859 80 344 1.0 6.0 0.00 0.00 0.00 34 1008.0
20260504035338 80 321 2.0 7.0 0.00 0.00 0.00 34 1007.9
20260504034847 80 35 1.0 7.0 0.00 0.00 0.00 34 1007.9
20260504034352 80 351 1.0 10.0 0.00 0.00 0.00 35 1007.8
20260504033836 81 305 3.0 10.0 0.00 0.00 0.00 35 1007.8
20260504033341 81 2 0.0 6.0 0.00 0.00 0.00 35 1007.8
20260504032851 81 1 0.0 5.0 0.00 0.00 0.00 35 1007.7
20260504032350 81 20 1.0 5.0 0.00 0.00 0.00 35 1007.7
20260504031839 82 348 1.0 5.0 0.00 0.00 0.00 34 1007.7
20260504031338 82 331 1.0 6.0 0.00 0.00 0.00 33 1007.6
20260504030847 82 326 1.0 6.0 0.00 0.00 0.00 33 1007.6
20260504030334 82 7 1.0 6.0 0.00 0.00 0.00 33 1007.6
20260504025835 83 354 0.0 7.0 0.00 0.00 0.00 32 1007.6
20260504025343 83 317 0.0 7.0 0.00 0.00 0.00 33 1007.6
20260504024832 83 315 3.0 7.0 0.00 0.00 0.00 32 1007.6
20260504024312 84 332 0.0 7.0 0.00 0.00 0.00 32 1007.6
20260504023815 84 346 4.0 7.0 0.00 0.00 0.00 32 1007.6
20260504023315 84 321 1.0 9.0 0.00 0.00 0.00 31 1007.5
20260504022825 84 341 2.0 9.0 0.00 0.00 0.00 31 1007.5
20260504022325 84 321 3.0 6.0 0.00 0.00 0.00 31 1007.5
20260504021835 84 8 1.0 8.0 0.00 0.00 0.00 30 1007.5
20260504021315 85 354 4.0 7.0 0.00 0.00 0.00 30 1007.5
20260504020324 85 330 0.0 4.0 0.00 0.00 0.00 29 1007.6
20260504015814 85 323 0.0 9.0 0.00 0.00 0.00 29 1007.6
20260504015314 85 10 1.0 9.0 0.00 0.00 0.00 29 1007.6
20260504014817 85 349 1.0 10.0 0.00 0.00 0.00 28 1007.6
20260504014324 86 338 1.0 10.0 0.00 0.00 0.00 27 1007.6
20260504013827 86 310 0.0 5.0 0.00 0.00 0.00 27 1007.6
20260504013334 86 351 2.0 8.0 0.00 0.00 0.00 26 1007.6
20260504012817 86 343 4.0 8.0 0.00 0.00 0.00 26 1007.7
20260504012317 87 356 1.0 7.0 0.00 0.00 0.00 26 1007.6
20260504011820 87 346 2.0 7.0 0.00 0.00 0.00 25 1007.7
20260504011327 87 352 1.0 8.0 0.00 0.00 0.00 25 1007.7
20260504010817 87 4 1.0 8.0 0.00 0.00 0.00 25 1007.8
20260504010317 87 358 4.0 9.0 0.00 0.00 0.00 24 1007.8
20260504005826 88 356 4.0 9.0 0.00 0.00 0.00 24 1007.8
20260504005326 87 323 1.0 8.0 0.00 0.00 0.00 25 1007.9
20260504004829 88 356 1.0 7.0 0.00 0.00 0.00 25 1007.9
20260504004337 88 347 3.0 6.0 0.00 0.00 0.00 24 1007.9
20260504003819 89 347 0.0 6.0 0.00 0.00 0.00 24 1007.9
20260504003319 88 11 1.0 6.0 0.00 0.00 0.00 24 1008.0
20260504002829 88 1 0.0 7.0 0.00 0.00 0.00 25 1008.0
20260504002329 88 48 1.0 7.0 0.00 0.00 0.00 25 1008.1
20260504001832 88 338 0.0 6.0 0.00 0.00 0.00 25 1008.0
20260504001319 88 335 0.0 6.0 0.00 0.00 0.00 25 1008.0
20260504000822 88 320 1.0 7.0 0.00 0.00 0.00 24 1008.0
20260504000322 88 351 4.0 7.0 0.00 0.00 0.00 21 1008.0
20260503235832 88 342 3.0 8.0 0.00 0.00 0.00 23 1008.1
20260503235312 89 298 1.0 4.0 0.00 0.00 0.00 22 1008.0
20260503234815 89 83 0.0 8.0 0.00 0.00 0.00 23 1008.1
20260503234321 89 18 1.0 8.0 0.00 0.00 0.00 23 1008.2
20260503233824 89 45 0.0 6.0 0.00 0.00 0.00 22 1008.2
20260503233324 89 160 0.0 6.0 0.00 0.00 0.00 21 1008.3
20260503232834 89 53 0.0 5.0 0.00 0.00 0.00 21 1008.3
20260503232321 89 297 0.0 3.0 0.00 0.00 0.00 20 1008.3
20260503231824 88 101 0.0 4.0 0.00 0.00 0.00 21 1008.4
20260503231331 88 27 1.0 6.0 0.00 0.00 0.00 21 1008.5
20260503230813 88 354 2.0 9.0 0.00 0.00 0.00 21 1008.5
20260503230313 88 3 3.0 9.0 0.00 0.00 0.00 21 1008.6
20260503225820 89 274 1.0 4.0 0.00 0.00 0.00 20 1008.7
20260503225316 89 333 1.0 7.0 0.00 0.00 0.00 21 1008.7
20260503224819 89 354 2.0 7.0 0.00 0.00 0.00 21 1008.8
20260503224326 89 347 1.0 7.0 0.00 0.00 0.00 23 1008.9
20260503223829 88 46 0.0 7.0 0.00 0.00 0.00 23 1009.0
20260503223329 88 348 0.0 2.0 0.00 0.00 0.00 23 1009.0
20260503222819 88 346 0.0 8.0 0.00 0.00 0.00 23 1009.1
20260503222320 88 300 1.0 10.0 0.00 0.00 0.00 24 1009.2
20260503221822 88 321 3.0 10.0 0.00 0.00 0.00 24 1009.3
20260503221326 88 11 0.0 7.0 0.00 0.00 0.00 26 1009.4
20260503220812 88 4 3.0 7.0 0.00 0.00 0.00 24 1009.5
20260503220313 88 99 0.0 6.0 0.00 0.00 0.00 27 1009.5
20260503215823 87 327 3.0 7.0 0.00 0.00 0.00 26 1009.6
20260503215322 88 343 3.0 8.0 0.00 0.00 0.00 25 1009.7
20260503214812 88 354 0.0 4.0 0.00 0.00 0.00 26 1009.7
20260503214321 87 68 1.0 10.0 0.00 0.00 0.00 28 1009.8
20260503213823 87 357 6.0 10.0 0.00 0.00 0.00 25 1009.9
20260503213323 88 308 0.0 4.0 0.00 0.00 0.00 28 1009.9
20260503212833 88 18 0.0 4.0 0.00 0.00 0.00 29 1010.0
20260503212313 87 34 1.0 5.0 0.00 0.00 0.00 29 1010.0
20260503211816 87 150 2.0 5.0 0.00 0.00 0.00 29 1010.0
20260503211323 87 334 1.0 7.0 0.00 0.00 0.00 29 1010.1
20260503210826 86 320 3.0 7.0 0.00 0.00 0.00 30 1010.1
20260503210325 86 309 3.0 6.0 0.00 0.00 0.00 30 1010.2
20260503205836 86 313 2.0 7.0 0.00 0.00 0.00 30 1010.3
20260503205335 88 321 0.0 7.0 0.00 0.00 0.00 30 1010.4
20260503204844 87 138 1.0 5.0 0.00 0.00 0.00 30 1010.4
20260503204350 87 146 1.0 5.0 0.00 0.00 0.00 31 1010.4
20260503203848 87 321 1.0 5.0 0.00 0.00 0.00 32 1010.5
20260503203334 87 49 2.0 5.0 0.00 0.00 0.00 32 1010.5
20260503202843 87 224 0.0 3.0 0.00 0.00 0.00 32 1010.6
20260503202342 86 44 0.0 3.0 0.00 0.00 0.00 35 1010.6
20260503201851 85 122 1.0 4.0 0.00 0.00 0.00 34 1010.7
20260503200827 85 43 0.0 7.0 0.00 0.00 0.00 35 1010.8
20260503200326 84 312 0.0 6.0 0.00 0.00 0.00 34 1010.8
20260503195829 84 324 1.0 5.0 0.00 0.00 0.00 33 1010.9
20260503195335 85 160 0.0 4.0 0.00 0.00 0.00 35 1010.9
20260503194818 84 45 0.0 2.0 0.00 0.00 0.00 37 1011.0
20260503194318 82 345 0.0 4.0 0.00 0.00 0.00 39 1011.0
20260503193828 82 325 1.0 5.0 0.00 0.00 0.00 39 1011.0
20260503193348 81 305 1.0 6.0 0.00 0.00 0.00 41 1011.1
20260503192837 81 349 2.0 6.0 0.00 0.00 0.00 42 1011.1
20260503192336 80 338 0.0 1.0 0.00 0.00 0.00 42 1011.2
20260503191845 80 314 0.0 5.0 0.00 0.00 0.00 42 1011.3
20260503191351 81 347 1.0 5.0 0.00 0.00 0.00 39 1011.3
20260503190833 81 134 0.0 1.0 0.00 0.00 0.00 40 1011.3
20260503190339 80 50 0.0 1.0 0.00 0.00 0.00 42 1011.5
20260503185845 79 20 0.0 4.0 0.00 0.00 0.00 42 1011.5
20260503185351 80 334 2.0 4.0 0.00 0.00 0.00 42 1011.6
20260503184901 80 122 0.0 4.0 0.00 0.00 0.00 43 1011.7
20260503184426 79 328 0.0 1.0 0.00 0.00 0.00 42 1011.7
20260503183841 78 120 0.0 1.0 0.00 0.00 0.00 44 1011.8
20260503183343 78 11 0.0 2.0 0.00 0.00 0.00 46 1011.8
20260503182834 78 337 0.0 2.0 0.00 0.00 0.00 44 1011.8
20260503182358 78 2 0.0 0.0 0.00 0.00 0.00 45 1011.9
20260503181840 78 359 0.0 1.0 0.00 0.00 0.00 46 1011.9
20260503181346 76 27 0.0 8.0 0.00 0.00 0.00 49 1011.9
20260503180815 75 11 2.0 8.0 0.00 0.00 0.00 48 1011.9
20260503180316 75 349 0.0 1.0 0.00 0.00 0.00 48 1012.0
20260503175826 75 122 0.0 2.0 0.00 0.00 0.00 50 1012.0
20260503175325 75 46 1.0 2.0 0.00 0.00 0.00 50 1012.1
20260503174829 74 79 0.0 1.0 0.00 0.00 0.00 51 1012.1
20260503174335 74 44 0.0 3.0 0.00 0.00 0.00 49 1012.1
20260503173818 75 353 0.0 0.0 0.00 0.00 0.00 50 1012.1